This is the latest recevied weather packets stored in our database for station/object EFHKFMI. If no packets are shown the sender has not sent any weather packets the latest 10 day(s).
| Time | Temp. | Humidity | Pressure | Rain* | Wind** | Luminosity | Snow |
|---|---|---|---|---|---|---|---|
| 1777686419 | 2.78° C | 88% | 1013.1 hPa | 0 mm | - | - | - |
| 1777685219 | 3.33° C | 93% | 1013.2 hPa | 0 mm | - | - | - |
| 1777684019 | 3.33° C | 92% | 1013.5 hPa | 0 mm | - | - | - |
| 1777682819 | 3.33° C | 87% | 1013.5 hPa | 0 mm | - | - | - |
| 1777681619 | 5° C | 77% | 1013.6 hPa | 0 mm | - | - | - |
| 1777680419 | 5° C | 80% | 1013.9 hPa | 0 mm | - | - | - |
| 1777679219 | 7.22° C | 75% | 1014.1 hPa | 0 mm | - | - | - |
| 1777678019 | 5.56° C | 73% | 1014.2 hPa | 0 mm | - | - | - |
| 1777676819 | 6.67° C | 77% | 1014.4 hPa | 0 mm | - | - | - |
| 1777675619 | 7.78° C | 70% | 1014.3 hPa | 0 mm | - | - | - |
| 1777674419 | 8.33° C | 69% | 1014.3 hPa | 0 mm | - | - | - |
| 1777673219 | 8.89° C | 65% | 1014.6 hPa | 0 mm | - | - | - |
| 1777672019 | 8.89° C | 66% | 1014.7 hPa | 0 mm | - | - | - |
| 1777670818 | 9.44° C | 64% | 1014.9 hPa | 0 mm | - | - | - |
| 1777669618 | 9.44° C | 63% | 1015.1 hPa | 0 mm | - | - | - |
| 1777668418 | 10° C | 61% | 1015.1 hPa | 0 mm | - | - | - |
| 1777667218 | 11.67° C | 55% | 1015.1 hPa | 0 mm | - | - | - |
| 1777666018 | 12.22° C | 47% | 1015.1 hPa | 0 mm | - | - | - |
| 1777664818 | 13.33° C | 43% | 1015.2 hPa | 0 mm | - | - | - |
| 1777663618 | 13.33° C | 44% | 1015.4 hPa | 0 mm | - | - | - |
| 1777662418 | 13.89° C | 41% | 1015.5 hPa | 0 mm | - | - | - |
| 1777661218 | 14.44° C | 40% | 1015.5 hPa | 0 mm | - | - | - |
| 1777660018 | 15° C | 44% | 1015.6 hPa | 0 mm | - | - | - |
| 1777658818 | 16.11° C | 44% | 1015.6 hPa | 0 mm | - | - | - |
| 1777657617 | 16.67° C | 42% | 1015.4 hPa | 0 mm | - | - | - |
* Rain latest hour (hover to see other rain measurements)
** Current wind speed in m/s (hover to see current wind gust speed)